sat.trackr.live / text

‹ back to catalog

SHIYAN-1 (SY-1)

NORAD 28220 · 2004-012A

PAYLOAD ACTIVE UNKNOWN

§ Identity

Operator
Country
PRC
Launch date
2004-04-18
Launch site
XICLF
Launch vehicle
Mass (kg)
RCS (m²)
1.55

Purposes: earth_obs

External: N2YO · Heavens-Above · Gunter

§ Orbital elements

Epoch: 2026-09-19T04:36:54.758880Z

Period
93.75 min
Inclination
97.8628°
Eccentricity
0.0006029
Mean motion
15.35968729 rev/d
Perigee alt
453.9 km
Apogee alt
462.2 km
Semi-major
6,836.2 km
B*
2.9139e-4
RAAN
346.4971°
Arg perigee
55.8759°
Mean anomaly
304.3054°
Rev number
22,551

§ Raw data

SHIYAN-1 (SY-1)1 28220U 04012A   26262.19230045  .00010122  00000+0  29139-3 0  99952 28220  97.8628 346.4971 0006029  55.8759 304.3054 15.35968729225515

JSON: /api/v1/satellites/28220 · /tle

For live sub-satellite position, see the globe view (requires WebGL).

§ Visibility from observer

Set your observer location to see the next 7 days of passes ≥ 10°. The values pass through the URL so the page stays shareable.

No JS? Fill the form by hand. The geolocation button needs JavaScript.